Leuchars, United Kingdom

8:15 AM BST on August 23, 2017 (GMT +0100)
Leuchars Air Base

Weather History for EGQL - April, 2014

Change the Weather History Date:

Tuesday, April 29, 2014

  Actual Average Record
Temperature  
Mean Temperature 52 °F -  
Max Temperature 57 °F 54 °F 68 °F (1999)
Min Temperature 46 °F 42 °F 31 °F (2012)
Degree Days  
Heating Degree Days 14    
Growing Degree Days 2 (Base 50)    
Moisture  
Dew Point 48 °F    
Average Humidity 92    
Maximum Humidity 100    
Minimum Humidity 71    
Precipitation  
Precipitation 0.00 in - - ()
Sea Level Pressure  
Sea Level Pressure 29.90 in    
Wind  
Wind Speed 4 mph ()    
Max Wind Speed 14 mph    
Max Gust Speed -    
Visibility 2.3 miles    
Events Fog    
Averages and records for this station are not official NWS values.
T = Trace of Precipitation, MM = Missing Value Source: Averaged Metar Reports

Daily Weather History Graph

Daily Weather History Graph

Search for Another Location

Airport or City:

Trip Planner

Search our weather history database for the weather conditions in past years. The results will help you decide how hot, cold, wet, or windy it might be!

Date:

Astronomy

Apr. 29, 2014 Rise Set
Actual Time 5:31 AM BST 8:48 PM BST
Civil Twilight 4:46 AM BST 9:32 PM BST
Nautical Twilight 3:46 AM BST 10:34 PM BST
Astronomical Twilight 2:12 AM BST 12:13 AM BST
Moon 5:44 AM BST (4/29) 9:14 PM BST (4/29)
Length of Visible Light 16h 46m
Length of Day
15h 17m
New Moon, 0% of the Moon is Illuminated
Apr 29
New Moon
May 7
First Quarter
May 14
Full
May 21
Last Quarter
May 28
New

Hourly Weather History & Observations

Time (BST) Temp. Windchill Dew Point Humidity Pressure Visibility Wind Dir Wind Speed Gust Speed Precip Events Conditions
12:00 AM 49 °F - 48 °F 94% 29.94 in 1 mi East 2.3 mph - - Fog Partial Fog
12:50 AM 48.2 °F - 48.2 °F 100% 29.92 in 1.9 mi NE 2.3 mph - N/A Fog Patches of Fog
1:00 AM 48 °F - 48 °F 98% 29.94 in 1 mi NE 2.3 mph - - Fog Patches of Fog
1:50 AM 48.2 °F - 48.2 °F 100% 29.92 in 1.9 mi Calm Calm - N/A Fog Fog
2:00 AM 48 °F - 48 °F 98% 29.93 in 2 mi Calm Calm - - Fog Light Fog
2:50 AM 48.2 °F - 48.2 °F 100% 29.92 in 1.6 mi East 2.3 mph - N/A Fog Fog
3:00 AM 49 °F - 48 °F 93% 29.92 in 2 mi East 2.3 mph - -   Mist
3:50 AM 48.2 °F - 48.2 °F 100% 29.89 in 1.5 mi NE 1.2 mph - N/A   Overcast
4:00 AM 48 °F - 48 °F 98% 29.91 in 1 mi NE 1.2 mph - -   Mist
4:50 AM 48.2 °F - 48.2 °F 100% 29.89 in 0.6 mi East 1.2 mph - N/A Fog Fog
5:00 AM 48 °F - 48 °F 98% 29.90 in 1 mi East 1.2 mph - - Fog Partial Fog
5:03 AM 48.2 °F - 48.2 °F 100% 29.89 in 0.4 mi East 1.2 mph - N/A Fog Fog
5:50 AM 48.2 °F - 48.2 °F 100% 29.89 in 0.2 mi SE 1.2 mph - N/A Fog Fog
6:00 AM 49 °F - 48 °F 95% 29.91 in 0 mi SE 1.2 mph - - Fog Partial Fog
6:50 AM 48.2 °F - 48.2 °F 100% 29.89 in 0.1 mi NE 1.2 mph - N/A Fog Fog
7:00 AM 49 °F - 48 °F 97% 29.91 in 0 mi NE 1.2 mph - - Fog Partial Fog
7:33 AM 50.0 °F - 50.0 °F 100% 29.89 in 0.6 mi East 1.2 mph - N/A Fog Fog
7:50 AM 50.0 °F - 50.0 °F 100% 29.89 in 0.6 mi SSE 2.3 mph - N/A Fog Fog
8:00 AM 50 °F - 49 °F 97% 29.91 in 1 mi SSE 2.3 mph - - Fog Partial Fog
8:50 AM 51.8 °F - 50.0 °F 94% 29.89 in 1.0 mi NNW 1.2 mph - N/A   Overcast
9:00 AM 51 °F - 50 °F 97% 29.91 in 1 mi NNW 1.2 mph - - Fog Light Fog
9:09 AM 51.8 °F - 50.0 °F 94% 29.89 in 1.6 mi NE 1.2 mph - N/A   Mostly Cloudy
9:20 AM 51.8 °F - 50.0 °F 94% 29.89 in 3.1 mi SSW 2.3 mph - N/A   Mostly Cloudy
9:45 AM 53.6 °F - 50.0 °F 88% 29.89 in 4.3 mi SE 2.3 mph - N/A   Mostly Cloudy
9:50 AM 53.6 °F - 50.0 °F 88% 29.89 in 4.3 mi SE 3.5 mph - N/A   Haze
10:00 AM 54 °F - 51 °F 84% 29.91 in 2 mi SE 3.5 mph - -   Haze
10:22 AM 55.4 °F - 50.0 °F 82% 29.89 in 5.6 mi SE 6.9 mph - N/A   Haze
10:50 AM 55.4 °F - 50.0 °F 82% 29.89 in 5.0 mi ESE 5.8 mph - N/A   Haze
11:00 AM 55 °F - 51 °F 81% 29.91 in 3 mi ESE 5.8 mph - -   Haze
11:50 AM 55.4 °F - 50.0 °F 82% 29.89 in 5.0 mi ESE 10.4 mph - N/A   Haze
12:00 PM 55 °F - 50 °F 78% 29.91 in 2 mi ESE 10.4 mph - -   Haze
12:16 PM 53.6 °F - 50.0 °F 88% 29.89 in 5.6 mi East 10.4 mph - N/A   Haze
12:50 PM 55.4 °F - 50.0 °F 82% 29.89 in 5.6 mi East 8.1 mph - N/A   Haze
1:00 PM 55 °F - 50 °F 78% 29.91 in 3 mi East 8.1 mph - -   Haze
1:50 PM 53.6 °F - 48.2 °F 82% 29.89 in 5.6 mi East 11.5 mph - N/A   Haze
2:00 PM 54 °F - 48 °F 75% 29.91 in 3 mi East 11.5 mph - -   Haze
2:50 PM 55.4 °F - 50.0 °F 82% 29.89 in 6.2 mi East 11.5 mph - N/A Fog Scattered Clouds
3:00 PM 56 °F - 49 °F 71% 29.91 in 3 mi East 11.5 mph - - Fog Light Fog
3:50 PM 55.4 °F - 48.2 °F 77% 29.89 in 6.2 mi East 11.5 mph - N/A Fog Mostly Cloudy
4:00 PM 54 °F - 49 °F 77% 29.90 in 4 mi East 11.5 mph - - Fog Light Fog
4:18 PM 55.4 °F - 50.0 °F 82% 29.89 in 6.2 mi ENE 9.2 mph - N/A Fog Mostly Cloudy
4:37 PM 51.8 °F - 48.2 °F 88% 29.89 in 6.2 mi NE 13.8 mph - N/A Fog Mostly Cloudy
4:50 PM 51.8 °F - 48.2 °F 88% 29.89 in 6.2 mi ENE 12.7 mph - N/A Fog Mostly Cloudy
5:00 PM 52 °F - 48 °F 81% 29.90 in 1 mi ENE 12.7 mph - - Fog Light Fog
5:46 PM 50.0 °F - 48.2 °F 94% 29.89 in 6.2 mi ENE 12.7 mph - N/A Fog Scattered Clouds
5:50 PM 50.0 °F - 48.2 °F 94% 29.89 in 4.3 mi ENE 13.8 mph - N/A Fog Scattered Clouds
6:00 PM 50 °F - 48 °F 89% 29.90 in 1 mi ENE 13.8 mph - - Fog Light Fog
6:32 PM 48.2 °F - 48.2 °F 100% 29.89 in 2.2 mi ENE 12.7 mph - N/A Fog Mostly Cloudy
6:50 PM 48.2 °F - 46.4 °F 93% 29.89 in 1.1 mi ENE 11.5 mph - N/A Fog Patches of Fog
7:00 PM 48 °F - 47 °F 94% 29.91 in 1 mi ENE 11.5 mph - - Fog Patches of Fog
7:50 PM 48.2 °F - 46.4 °F 93% 29.92 in 1.0 mi East 8.1 mph - N/A Fog Patches of Fog
8:00 PM 47 °F - 46 °F 97% 29.92 in 0 mi East 8.1 mph - - Fog Patches of Fog
8:50 PM 46.4 °F 41.9 °F 46.4 °F 100% 29.92 in 1.1 mi ENE 9.2 mph - N/A Fog Patches of Fog
9:00 PM 47 °F - 46 °F 96% 29.93 in 0 mi ENE 9.2 mph - - Fog Patches of Fog
9:50 PM 46.4 °F 41.5 °F 46.4 °F 100% 29.92 in 0.9 mi ENE 10.4 mph - N/A Fog Patches of Fog
10:00 PM 46 °F - 46 °F 99% 29.93 in 0 mi ENE 10.4 mph - - Fog Patches of Fog
10:50 PM 46.4 °F 42.4 °F 46.4 °F 100% 29.92 in 0.9 mi ENE 8.1 mph - N/A Fog Patches of Fog
11:00 PM 46 °F - 46 °F 97% 29.94 in 0 mi ENE 8.1 mph - - Fog Patches of Fog
11:50 PM 46.4 °F 42.4 °F 46.4 °F 100% 29.92 in 0.7 mi ENE 8.1 mph - N/A Fog Patches of Fog